User: anonymous   Login
Location: Unspecified
(0.0000°N, 0.0000°E)
Time: 12:20:55
(UTC+00:00)
Language:

Milstar DFS 2 - Orbit

View from above orbital plane
View from above orbital plane
View from above satellite
View from above satellite

Ground track
Ground track

The orbit data is extracted from the following two-line orbital elements,

1 23712U 95060A   19110.38199135 -.00000215  00000-0  00000+0 0  9994
2 23712  12.9793  23.5343 0003198   0.6317 231.5230  1.00271909  5422
Epoch (UTC): 20 April 2019 09:10:04
Eccentricity: 0.0003198
inclination: 12.9793°
perigee height: 35773 km
apogee height: 35799 km
right ascension of ascending node: 23.5343°
argument of perigee: 0.6317°
revolutions per day: 1.00271909
mean anomaly at epoch: 231.5230°
orbit number at epoch: 542

The dashed part of the orbit path shows where the satellite is in the earth's shadow,  

DLR